Regional Weather Roundup
Issued by NWS

Home | Current Version | Previous Version | Graphics & Text | Print | Product List | Glossary On
Versions: 1 2 3 4 5 6 7 8 9 10 11 12 13 14 15 16 17 18 19 20 21 22 23 24 25 26 27 28 29 30 31 32 33 34 35 36 37 38 39 40 41 42 43 44 45 46 47 48 49 50
000
ASUS43 KOAX 211010
RWRNE

WEATHER ROUNDUP FOR NEBRASKA
NATIONAL WEATHER SERVICE OMAHA NE
400 AM CST SUN DEC 21 2014

NOTES: SATELLITE DATA IS BEING USED TO AUGMENT CLOUD COVER ABOVE
       12000 FEET.
       "FAIR" INDICATES FEW OR NO CLOUDS BELOW 12,000 FEET WITH NO
       SIGNIFICANT WEATHER AND/OR OBSTRUCTIONS TO VISIBILITY.

  * THESE STATIONS DO NOT REPORT WEATHER SUCH AS RAIN...SNOW OR FOG.

NEZ001>004-019>022-054>056-211100-
NEBRASKA PANHANDLE

CITY           SKY/WX    TMP DP  RH WIND       PRES   REMARKS
SCOTTSBLUFF    CLEAR     20  16  84 N3        29.78F
ALLIANCE       CLEAR     28  22  78 SW8       29.76F WCI  20
CHADRON        CLEAR     22  18  85 S3        29.73F
KIMBALL        CLEAR     32  24  71 W9        29.79F WCI  24
SIDNEY         MOCLDY    28  22  78 SW5       29.82F WCI  23
$$

NEZ057>060-069>072-079>082-211100-
SOUTHWEST NEBRASKA

CITY           SKY/WX    TMP DP  RH WIND       PRES   REMARKS
NORTH PLATTE   CLOUDY    27  24  89 CALM      29.84F
IMPERIAL       CLOUDY    34  26  72 NW7       29.83F WCI  28
LEXINGTON      CLOUDY    28  27  95 W3        29.85F
MCCOOK         CLOUDY    32  27  81 W3        29.85F
OGALLALA       CLOUDY    26  24  93 W5        29.84F WCI  20
$$

NEZ005>010-023>029-035>040-094-211100-
NORTH CENTRAL NEBRASKA

CITY           SKY/WX    TMP DP  RH WIND       PRES   REMARKS
VALENTINE      MOCLDY    26  23  88 SW6       29.76F WCI  19
AINSWORTH      CLOUDY    29  24  81 S6        29.77F WCI  23
BROKEN BOW     PTCLDY    29  25  85 SW3       29.83F
O`NEILL        CLOUDY    26  26 100 S5        29.82F WCI  21
THEDFORD       CLOUDY    33  29  83 SW5       29.80F WCI  29
$$

NEZ041-046>049-061>064-073>077-083>087-211100-
SOUTH CENTRAL NEBRASKA

CITY           SKY/WX    TMP DP  RH WIND       PRES   REMARKS
GRAND ISLAND   CLEAR     28  27  96 S6        29.88S FOG     WCI  22
AURORA         PTCLDY    32  32 100 SW7       29.88F FOG     WCI  26
HASTINGS       MOCLDY    32  30  92 S7        29.87F FOG     WCI  26
HEBRON         MOCLDY    36  34  92 S12G17    29.93F FOG     WCI  28
HOLDREGE       MOCLDY    35  31  85 SW7       29.86F WCI  29
KEARNEY *      MOCLDY    32  28  86 SW6       29.86F WCI  26
YORK           FOG       32  32 100 S9        29.89F VSB 3/4 WCI  24
$$

NEZ011>018-030>034-042>045-211100-
NORTHEAST NEBRASKA

CITY           SKY/WX    TMP DP  RH WIND       PRES   REMARKS
NORFOLK        FOG       33  33 100 SW7       29.86F VSB 1   WCI  27
ALBION         FOG       31  29  94 S5        29.86F VSB 1/2 WCI  26
BLAIR          CLOUDY    37  35  94 S15       29.91F FOG     WCI  28
COLUMBUS *     CLOUDY    36  32  87 SW7       29.90F WCI  30
FREMONT        CLOUDY    38  37  95 S10G17    29.91F FOG     WCI  31
TEKAMAH        CLOUDY    37  35  92 S13       29.91F WCI  29
WAYNE          FOG       34  34  99 S10       29.87F VSB 3/4 WCI  26
$$

NEZ050>053-065>068-078-088>093-211100-
SOUTHEAST NEBRASKA

CITY           SKY/WX    TMP DP  RH WIND       PRES   REMARKS
LINCOLN        CLOUDY    38  36  92 S12       29.94F WCI  30
OMAHA EPPLEY   CLOUDY    36  34  92 SE15      29.96F FOG     WCI  27
BEATRICE       CLOUDY    38  37  94 S12       29.95F WCI  31
FALLS CITY     CLOUDY    35  33  92 SE7       30.02F WCI  29
NEBRASKA CITY  CLOUDY    35  35 100 S12       29.97F FOG     WCI  26
PLATTSMOUTH    CLOUDY    35  33  95 S13       29.95F FOG     WCI  26
$$

NEZ044-045-051>053-067-211100-
OMAHA AREA

CITY           SKY/WX    TMP DP  RH WIND       PRES   REMARKS
OMAHA EPPLEY   CLOUDY    36  34  92 SE15      29.96F FOG     WCI  27
BLAIR          CLOUDY    37  35  94 S15       29.91F FOG     WCI  28
FREMONT        CLOUDY    38  37  95 S10G17    29.91F FOG     WCI  31
MILLARD        CLOUDY    37  35  92 SE8       29.94F FOG     WCI  30
OFFUTT AFB     CLOUDY    36  34  93 SE10      29.95F WCI  28
PLATTSMOUTH    CLOUDY    35  33  95 S13       29.95F FOG     WCI  26
WAHOO          CLOUDY    37  35  92 S9        29.92F FOG     WCI  30
$$


USA.gov is the U.S. government's official web portal to all federal, state and local government web resources and services.